AirNav   Pilot Hours Calculator
 
 834 users online  

3LL6 Bickel Airport
New Athens, Illinois, USA

GOING TO NEW ATHENS?


FAA INFORMATION EFFECTIVE 01 DECEMBER 2022

Location

FAA Identifier: 3LL6
Lat/Long: 38-20-06.0000N 089-46-11.0000W
38-20.100000N 089-46.183333W
38.3350000,-89.7697222
(estimated)
Elevation: 530 ft. / 162 m (estimated)
From city: 5 miles SE of NEW ATHENS, IL
Time zone: UTC -6 (UTC -5 during Daylight Saving Time)
Zip code: 62255

Airport Operations

Airport use: Private use. Permission required prior to landing
Activation date: 10/2007
Control tower: no
ARTCC: KANSAS CITY CENTER
FSS: SAINT LOUIS FLIGHT SERVICE STATION
Attendance: UNATNDD
Segmented circle: no

Airport Communications

WX AWOS-3 at SAR (12 nm S): 118.375 (618-443-3296)

Nearby radio navigation aids

VOR radial/distance  VOR name  Freq  Var
TOYr160/25.2TROY VORTAC116.0004E
ENLr256/29.2CENTRALIA VORTAC115.0004E

 
NDB name  Hdg/Dist  Freq  Var  ID
GOOEY192/8.738502WJD .--- -..

Airport Services

Runway Information

Runway 18/36

Dimensions: 2215 x 100 ft. / 675 x 30 m
Surface: turf
RUNWAY 18  RUNWAY 36
Traffic pattern: leftleft
Obstructions: 30 ft. pline, 600 ft. from runway100 ft. pline, 2200 ft. from runway

Airport Ownership and Management from official FAA records

Ownership: Privately-owned
Owner: PAUL BICKEL
2960 ECKERT RD
LENZBURG, IL 62255
Phone 618-660-9765
Manager: PAUL BICKEL
2960 ECKERT RD
LENZBURG, IL 62255
Phone 618-660-9765

Airport Operational Statistics

Aircraft based on the field: 1
Single engine airplanes: 1
    

Additional Remarks

FOR CD CTC ST LOUIS APCH AT 314-890-1018.

Instrument Procedures

There are no published instrument procedures at 3LL6.

Some nearby airports with instrument procedures:

KSAR - Sparta Community Airport-Hunter Field (12 nm S)
KBLV - Scott Air Force Base/MidAmerica Airport (13 nm N)
KCPS - St Louis Downtown Airport (23 nm NW)
KPCD - Perryville Regional Airport (28 nm S)
KPJY - Pinckneyville/Du Quoin Airport (29 nm SE)
 
Loc | Ops | Rwys | IFR | FBO | Links
Com | Nav | Svcs | Stats | Notes
Aerial photo
No photo
 
Sectional chart

 
Airport distance calculator
Flying to Bickel Airport? Find the distance to fly.

From to 3LL6

Sunrise and sunset
Times for 07-Dec-2022
 Local
(UTC-6)
 Zulu
(UTC)
Morning civil twilight06:3412:34
Sunrise07:0413:04
Sunset16:3722:37
Evening civil twilight17:0723:07

Current date and time
Zulu (UTC)  07-Dec-2022 13:09:42
Local (UTC-6)  07-Dec-2022 07:09:42
 
METAR
KSAR 
12nm S 
071255Z AUTO 00000KT 3/4SM BR OVC002 07/07 A3019 RMK AO2 T00710071
KBLV 
12nm N 
071255Z 36003KT 2 3/4SM BR OVC029 08/08 A3020 RMK AO2A SLPNO ALSTG ESTMD RVRNO TSNO $
KCPS 
23nm NW 
071253Z 01003KT 5SM BR SCT005 OVC030 07/07 A3019 RMK AO2 RAE35 SLP224 P0000 T00720067
TAF
KBLV 
12nm N 
070800Z 0708/0814 03006KT 3200 BR OVC003 QNH3008INS BECMG 0715/0716 35006KT 8000 BR SCT003 OVC006 QNH3024INS BECMG 0721/0722 36006KT 9000 BR SCT006 OVC015 QNH3025INS BECMG 0801/0802 01006KT 8000 BR BKN006 OVC015 QNH3024INS TX11/0720Z TN07/0711Z
NOTAMs
Click for the latest NOTAMs
NOTAMs are issued by the DoD/FAA and will open in a separate window not controlled by AirNav.

 

 
 

Would you like to see your business listed on this page?

 If your business provides an interesting product or service to pilots, flight crews, aircraft, or users of the Bickel Airport, you should consider listing it here.  To start the listing process, click on the button below
 
Add a business
 

Other Pages about Bickel Airport

Update a link
 
Copyright © AirNav, LLC. All rights reserved. Privacy Policy  Contact